Find Starlink 34330

NORAD ID: 64227 Int'l Des: 2025-117 Owner: SPXS Country: US Constellation: starlink operational
LEOCIRCULAR

リアルタイム位置

3D地球を読み込み中...

Starlink 34330について

説明を読み込み中...

次回通過

Passes for default location (London). Set your location on the main map for personalized predictions.

高度履歴

Loading altitude history...

軌道要素

1 64227U 25117AA 26104.59482606 .00006292 00000-0 22442-3 0 9996
2 64227 53.1599 232.7700 0001389 91.0942 269.0218 15.30196484 50028
Epoch: Apr 14, 2026 • Age: 11 hours

現在のステータス

高度 480.6 km
速度 7.63 km/s
衛星直下点 52.08°N, 76.45°E
打ち上げ日 May 31, 2025
運用期間 0.8 years
タイプ internet

技術仕様

分類 Payload
質量 575.00 kg
乾燥質量 530.00 kg
総質量 575.00 kg
長さ 0.30 m
直径 4.10 m
スパン 29.00 m
形状 Box + pan
製造者 SPXS
バスタイプ Starlink V2MO
フェーズステータス In Orbit
所有者/国 SPXS/US

Most Searched